www.pogodaiklimat.ru

Погода и климат >> Архив погоды >> Россия >> Ямало-Ненецкий АО >> Харп


ПОГОДА в Харпе

  • Прогноз погоды в Харпе
  • Монитор погоды в Харпе
  • Климат города

АРХИВ ПОГОДЫ в Харпе

Время (UTC), дата Ветер
(напр.,м/с)
 
Видим.   Явления Облачность Т
(С)
Тd
(С)
f
(%)
Тe
(С)
Тes
(С)
Комфортность P
(гПа)
Po
(гПа)
Тmin
(С)
Tmax
(С)
R
(мм)
R24
(мм)
S
(см)
21 15.10 Ю 3 н/о н/о -1.8 -3.1 91 -7 -7 1008.7 999.1
00 16.10 Ю 3 н/о н/о -1.3 -2.3 93 -6 -6 1004.2 994.7
03 16.10 Ю 3 н/о н/о -1.2 -2.1 94 -6 -6 1000.3 990.9 -7.6
06 16.10 ЮЗ 3 н/о н/о -0.6 -1.5 94 -6 -6 997.3 987.9
09 16.10 Ю 1 н/о н/о +2.4 +1.3 92 +1 +1 996.5 987.2
12 16.10 З 6-13
{14}
н/о н/о +3.0 +0.1 81 -3 -3 995.4 986.1
15 16.10 З 6
{16}
н/о н/о +3.2 -0.1 79 -2 -2 994.2 984.9 +3.5 10
18 16.10 З 5
{12}
н/о н/о +2.9 -0.2 80 -2 -2 991.7 982.4
21 16.10 З 4
{15}
н/о н/о +1.9 -1.0 81 -3 -3 991.5 982.3
00 17.10 З 6-13
{13}
н/о н/о +1.9 -2.8 71 -4 -4 991.4 982.1
03 17.10 СЗ 5
{13}
н/о н/о +0.9 -3.9 70 -5 -5 991.9 982.5 +0.8 4
06 17.10 СЗ 5
{11}
н/о н/о +2.2 -5.1 58 -3 -3 993.3 984.0
09 17.10 С 5
{10}
н/о н/о +1.9 -3.9 65 -3 -3 996.2 986.9
12 17.10 С 7-13
{14}
н/о н/о +1.0 -4.0 69 -5 -5 998.2 988.8
18 17.10 С 4
{12}
н/о н/о +0.1 -4.9 69 -5 -5 1005.2 995.8
21 17.10 С 2
{10}
н/о н/о -1.8 -6.4 71 -5 -5 1008.5 998.9
00 18.10 СЗ 2 н/о н/о -2.3 -7.3 69 -6 -6 1010.7 1001.1
03 18.10 С 1 н/о н/о -4.4 -6.7 84 -7 -7 1012.1 1002.4 -4.8
06 18.10 З 1 н/о н/о -0.5 -5.1 71 -2 -2 1012.4 1002.8
09 18.10 С 2 н/о н/о +0.1 -3.6 76 -3 -3 1012.4 1002.9
12 18.10 СЗ 1 н/о н/о -0.4 -4.1 76 -2 -2 1012.0 1002.4
15 18.10 З 1 н/о н/о -1.6 -4.2 82 -4 -4 1011.7 1002.1 +0.4 2
18 18.10 З 1 н/о н/о -2.4 -4.9 83 -5 -5 1010.4 1000.8
21 18.10 ЮЗ 1 н/о н/о -3.0 -5.1 85 -5 -5 1009.6 1000.0
00 19.10 ЮЗ 1 н/о н/о -3.4 -5.3 87 -6 -6 1009.1 999.5
03 19.10 ЮВ 1 н/о н/о -3.1 -4.4 91 -5 -5 1008.6 999.0 -3.8
06 19.10 Ю 1 н/о н/о -1.7 -3.7 86 -4 -4 1008.4 998.8
09 19.10 Ю 2 н/о н/о -1.4 -4.9 77 -5 -5 1008.2 998.7
12 19.10 Ю 1 н/о н/о -1.8 -5.6 75 -4 -4 1007.9 998.4
15 19.10 Ю 1 н/о н/о -2.5 -5.4 80 -5 -5 1007.6 998.0 -1.2
18 19.10 ЮВ 1 н/о н/о -2.7 -5.0 84 -5 -5 1007.1 997.6
21 19.10 штиль 0 н/о н/о -2.8 -7.0 73 -4 -4 1007.0 997.4
00 20.10 СВ 2 н/о н/о -3.1 -5.9 81 -7 -7 1006.8 997.2
03 20.10 СВ 2 н/о н/о -3.1 -5.4 84 -7 -7 1007.5 997.9 -3.1
06 20.10 СВ 4 н/о н/о -3.5 -7.1 76 -9 -9 1008.3 998.7 -3.5
09 20.10 СВ 4 н/о н/о -3.2 -7.6 72 -9 -9 1009.3 999.7
12 20.10 СВ 3 н/о н/о -4.0 -9.0 68 -9 -9 1010.6 1001.0
15 20.10 СВ 2 н/о н/о -5.0 -10.1 67 -9 -9 1011.8 1002.1 -2.8
18 20.10 С 3 н/о н/о -5.3 -9.9 70 -11 -11 1011.8 1002.1
21 20.10 С 6
{11}
н/о н/о -2.9 -8.1 67 -10 -10 1011.4 1001.8
00 21.10 С 5
{11}
н/о н/о -3.2 -7.8 70 -10 -10 1011.8 1002.2
03 21.10 С 5-10
{10}
н/о н/о -2.3 -5.9 76 -9 -9 1012.3 1002.7 -9.7
06 21.10 С 5
{10}
н/о н/о -0.2 -4.3 74 -6 -6 1012.7 1003.2
09 21.10 Ю 2 н/о н/о -2.0 -4.6 82 -6 -6 1013.9 1004.3
12 21.10 ЮВ 1 н/о н/о -2.2 -4.5 84 -4 -4 1014.4 1004.7

 

Местоположение метеостанции Харп (Ямало-Ненецкий АО, Россия): широта 66.80 долгота 65.78 высота над уровнем моря 76 м.

В архиве по умолчанию представлена погода в Харпе за последнюю неделю. Архивные данные за месяц целиком и за предыдущие месяцы, начиная с января 2011 года, Вы можете получить, выбрав интересующий диапазон дат из раскрывающегося списка и нажав кнопку "Ввод!".


*Определитесь, кто Вы:
робот инопланетянин человек

Внимание! Время в таблицах - всемирное. Для получения местного времени необходимо прибавить поправку, которая в Харпе равна 5 ч.

Смотрите также архив погоды в соседних городах и на ближайших метеорологических станциях:

Погода в Салехарде (Ямало-Ненецкий АО, Россия) (49 км)
Погода в Елецкой (Коми, Россия) (80 км)
Погода в Белоярске (Ямало-Ненецкий АО, Россия) (103 км)
Погода в Питляре (Ямало-Ненецкий АО, Россия) (108 км)
Погода в Воркуте (Коми, Россия) (109 км)
Погода в Полуе (Ямало-Ненецкий АО, Россия) (155 км)
Погода в Мужах (Ямало-Ненецкий АО, Россия) (165 км)
Погода в Петруни (Коми, Россия) (225 км)
Погода в Усть-Каре (Ненецкий АО, Россия) (275 км)
Погода в Ныде (Ямало-Ненецкий АО, Россия) (315 км)

Пояснения к столбцам:

Ветер - указаны скорость ветра в м/с - средняя за 10 мин, порывы в срок и между сроками (в фигурных скобках) и направление, откуда дует ветер: С - северный, СВ - северо-восточный, В - восточный, ЮВ - юго-восточный, Ю - южный, ЮЗ - юго-западный, З - западный, СЗ - северо-западный.
Видимость - горизонтальная дальность видимости в метрах или километрах. При видимости от 1 до 10 км при отсутствии осадков обычно наблюдается дымка, при ухудшении видимости до 1 км и менее - туман. В сухую погоду видимость может ухудшаться дымом, пылью или мглою.
Явления - указаны атмосферные явления, наблюдавшиеся в срок или в последний час перед сроком; фигурными скобками обозначены явления, наблюдавшиеся между сроками (за 1-3 часа до срока); квадратными скобками обозначены град или гололедные отложения с указанием их диаметра в мм.
Облачность - указаны через наклонную черту общая и нижняя облачность в баллах и высота нижней границы облаков в метрах; квадратными скобками обозначены формы облаков: Ci - перистые, Cs - перисто-слоистые, Cc - перисто-кучевые, Ac - высококучевые, As - высокослоистые, Sc - слоисто-кучевые, Ns - слоисто-дождевые, Cu - кучевые, Cb - кучево-дождевые. Подробнее классификацию облаков см. в Атласе облаков (PDF).
T - Температура воздуха - температура, измеренная на высоте 2 м над землей.
Td - Температура точки росы - температура, при понижении до которой содержащийся в воздухе водяной пар достигнет насыщения.
f - Относительная влажность воздуха - влажноcть воздуха, измеренная на высоте 2 м над землей.
Te - Эффективная температура - температура, которую ощущает одетый по сезону человек в тени. Характеристика душности погоды. При расчете учитывается влияние влажности воздуха и скорости ветра на теплоощущения человека.
Tes - Эффективная температура на солнце - температура, которую ощущает человек, с поправкой на солнечный нагрев. Характеристика знойности погоды. Зависит от высоты солнца над горизонтом, облачности и скорости ветра. Ночью, в пасмурную погоду, а также при ветре 12 м/с и более поправка равна нулю.
P - Атмосферное давление - приведенное к уровню моря атмосферное давление.
Po - Атмосферное давление - измеренное на уровне метеостанции атмосферное давление.
Tmin - Минимальная температура - минимум температуры воздуха на высоте 2 м над землей.
Tmax - Максимальная температура - максимум температуры воздуха на высоте 2 м над землей.
R - Количество осадков - Количество выпавших осадков за период времени, мм. При наведении курсора мыши на число - период времени, за который выпало указанное количество осадков.
R24 - Количество осадков - Количество выпавших осадков за 24 часа, мм.
S - Снежный покров - Высота снежного покрова, см. При наведении курсора мыши на число - состояние снежного покрова и степень покрытия местности в баллах.